Content
SEND FEEDBACK

Daily
Averages
Monthly
Summary
United States of America

TOPANGA, CALIFORNIA


Home > North America > United States > California
Elevation: 1311 feet     Latitude: 34 05N     Longitude: 118 36W

WEATHER
 
SELECT A DAY
Number of Records: 171,294;   Date Range: 1/1/95 - 9/3/14
 
SHARE

PRINT THIS DATA

[ ← Previous Day ]
WEATHER ALMANAC - JANUARY 3, 2013
[ Next Day → ]
[ °C ]   °F
Weather ElementAverageHighLow
Temperature55.5 °F69.1 °F (12:51 pm)41 °F (5:51 am)
Dewpoint22.8 °F37 °F (3:51 pm)12 °F (6:51 pm)
Humidity33.2 %65 % (1:51 am)14 % (12:51 pm)
Barometer30.11 in30.18 in (11:51 pm)30.06 in (1:51 am)
Wind Speed4.7 mph9.2 mph (2:51 pm)
Weather ElementAverage
Visibility10 mi
Wind DirectionE (90.5 °)

Weather ElementTotal
Precipitation---
Heating Degree Days10 (Base 65)
Growing Degree Days5.1 (Base 50)
Averaged from 22 records on January 3, 2013
WEATHER CONDITIONS BREAKOUT
WIND DIRECTION BREAKOUT
WEATHER BY HOUR - JANUARY 3, 2013
[ °C ]   °F
Local TimeTemperatureDewpointHumidityBarometerVisibilityWind DirectionWind SpeedGust SpeedPrecipitationEventsConditions
1:51 AM44.1 °F33.1 °F65 %30.06 in10.0 miENE (60°)3.5 mphClear
2:51 AM45.0 °F30.0 °F56 %30.06 in10.0 miENE (70°)3.5 mphClear
3:51 AM42.1 °F30.9 °F65 %30.06 in10.0 miNE (50°)4.6 mphClear
4:51 AM44.1 °F28.0 °F53 %30.06 in10.0 miNNE (30°)4.6 mphClear
5:51 AM41.0 °F30.0 °F65 %30.07 in10.0 miEast (90°)5.8 mphClear
6:51 AM42.1 °F28.9 °F60 %30.10 in10.0 miEast (80°)3.5 mphClear
7:51 AM46.9 °F30.0 °F52 %30.12 in10.0 miENE (60°)3.5 mphClear
8:51 AM57.9 °F28.0 °F32 %30.13 in10.0 miENE (70°)4.6 mphClear
9:51 AM63.0 °F25.0 °F24 %30.15 in10.0 miVariable4.6 mphClear
10:51 AM66.0 °F24.1 °F20 %30.14 in10.0 miENE (70°)3.5 mphClear
12:51 PM69.1 °F17.1 °F14 %30.09 in10.0 miSW (220°)8.1 mphClear
1:51 PM68.0 °F17.1 °F14 %30.08 in10.0 miSW (230°)5.8 mphClear
2:51 PM66.9 °F25.0 °F21 %30.09 in10.0 miSW (230°)9.2 mphClear
3:51 PM64.9 °F37.0 °F36 %30.08 in10.0 miSouth (190°)6.9 mphClear
4:51 PM64.9 °F14.0 °F14 %30.09 in10.0 miNorth (350°)4.6 mphClear
5:51 PM62.1 °F12.9 °F15 %30.10 in10.0 miNNE (20°)4.6 mphClear
6:51 PM60.1 °F12.0 °F15 %30.12 in10.0 miNNE (20°)4.6 mphClear
7:51 PM57.9 °F12.9 °F17 %30.13 in10.0 miNorth (10°)3.5 mphClear
8:51 PM54.0 °F19.0 °F25 %30.15 in10.0 miEast (80°)3.5 mphClear
9:51 PM53.1 °F19.0 °F26 %30.17 in10.0 miNNE (30°)3.5 mphClear
10:51 PM54.0 °F15.1 °F22 %30.17 in10.0 miNorth (10°)3.5 mphClear
11:51 PM53.1 °F12.9 °F20 %30.18 in10.0 miNNE (20°)4.6 mphClear
Hourly data recorded from KSMO, located miles away from Topanga, California







STORIES FROM OUR PARTNERS